Location: Unspecified
(49.0500°N, 0.0000°E)
Time: 03:47:19
(UTC+00:00)

OTV 5 (USA 277) - Pass Details

Date: 17 June 2019
Orbit: 310 x 324 km, 54.5° (Epoch: 08 October)

Event Time Altitude Azimuth Distance (km) Brightness Sun altitude
Exits shadow 01:37:00 - 279° (W) 1,736 ? -14.5°
Reaches altitude 10° 01:38:17 10° 288° (WNW) 1,246 ? -14.4°
Drops below altitude 10° 01:43:11 10° 53° (NE) 1,247 ? -14.1°
Enters shadow 02:39:22 -68° 267° (W) 12,159 ? -9.4°
Maximum altitude 03:15:34 28° 11° (N) 644 ? -5.6°
